#timestamp,LO_Frequency,Hit,StdDev 
1456837215.1,286046997.3,N
1456837216.0,286046997.3,N
1456837235.8,286046999.2,N
1456837255.6,286047002.4,N
1456837275.5,286047002.2,N
1456837295.3,286046999.0,N
1456837315.1,286047000.0,N
1456837335.9,286046996.6,N
1456837355.7,286046998.8,N
1456837375.5,286047002.2,N
1456837395.4,286047002.1,N
1456837415.2,286047005.2,N
1456837435.0,286047008.2,Y
1456837435.9,286047008.2,P
1456837455.8,286047009.9,N
1456837475.6,286047011.8,N
1456837495.4,286047008.1,N
1456837515.3,286047006.1,N
1456837535.1,286047005.8,N
1456837536.0,286047005.8,N
1456837555.8,286047002.6,N
1456837575.7,286047001.7,N
1456837595.5,286047005.3,N
1456837615.3,286047007.6,N
1456837635.2,286047009.7,N
1456837655.9,286047014.0,Y
1456837675.7,286047008.0,P
1456837695.6,286047008.0,P
1456837715.4,286047006.6,P
1456837735.2,286047003.2,Y
1456837755.1,286046995.6,P
1456837756.0,286046995.6,N
1456837775.8,286046996.3,N
1456837795.6,286046996.2,N
1456837815.5,286046995.7,N
1456837835.3,286046993.6,N
1456837855.1,286046994.4,N
1456837875.8,286046997.2,N
1456837895.7,286046999.3,N
1456837915.5,286046998.0,N
1456837935.3,286046994.0,N
1456837955.2,286046994.6,N
1456837975.9,286046997.2,N
1456837995.7,286046996.0,N
1456838015.6,286046992.8,N
1456838035.4,286046990.2,Y
1456838055.2,286046992.6,P
1456838075.1,286046990.1,P
1456838076.0,286046990.1,P
1456838095.8,286046988.5,Y
1456838115.6,286047001.7,P
1456838135.5,286047004.9,N
1456838155.3,286047005.0,N
1456838175.1,286047005.5,N
1456838195.9,286047006.6,N
1456838215.7,286047006.7,N
1456838235.5,286046999.7,N
1456838255.4,286047000.2,N
1456838275.2,286046996.7,N
1456838295.0,286046997.9,N
1456838295.9,286046997.9,N
1456838315.8,286046999.0,N
1456838335.6,286046999.9,N
1456838355.4,286047002.2,N
1456838375.2,286047002.6,N
1456838395.1,286046996.5,N
1456838396.0,286046996.5,N
1456838415.8,286046999.7,N
1456838435.6,286047000.2,N
1456838455.5,286047002.3,N
1456838475.3,286046999.3,N
1456838495.1,286046999.5,N
1456838515.9,286046995.0,N
1456838535.7,286046996.4,N
1456838555.5,286046998.2,N
1456838575.4,286046998.4,N
1456838595.2,286046995.1,N
1456838615.0,286046991.9,N
1456838615.9,286046991.9,N
1456838635.8,286046987.3,Y
1456838655.6,286046988.2,P
1456838675.4,286046987.8,N
1456838695.3,286046991.1,N
1456838715.1,286046986.9,N
1456838716.0,286046986.9,N
1456838735.8,286046984.2,Y
1456838755.7,286046990.3,P
1456838775.5,286046991.3,P
1456838795.3,286046989.6,P
1456838815.2,286046987.5,Y
1456838835.9,286046997.8,P
1456838855.7,286047000.4,N
1456838875.6,286046998.5,N
1456838895.4,286047000.2,N
1456838915.2,286047001.7,N
1456838935.0,286047001.6,N
1456838936.0,286047001.6,N
1456838955.8,286046998.0,N
1456838975.6,286046996.0,N
1456838995.5,286046995.3,N
1456839015.3,286046998.9,N
1456839035.1,286046999.3,N
1456839055.9,286046997.4,N
1456839075.7,286046994.2,N
1456839095.5,286046997.5,N
1456839115.4,286046997.5,N
1456839135.2,286046998.0,N
1456839155.0,286047001.0,N
1456839155.9,286047001.0,N
1456839175.8,286046998.8,N
1456839195.6,286046997.4,N
1456839215.4,286046997.7,N
1456839235.3,286046995.7,N
1456839255.1,286046994.4,N
1456839256.0,286046994.4,N
1456839275.8,286046994.6,N
1456839295.6,286046994.6,N
1456839315.5,286046996.1,N
1456839335.3,286046993.7,N
1456839355.1,286046991.7,Y
1456839375.9,286046998.0,P
1456839395.7,286046998.0,P
1456839415.5,286046996.7,P
1456839435.4,286046995.4,Y
1456839455.2,286046993.3,P
1456839475.0,286046993.1,P
1456839475.9,286046993.1,P
1456839495.8,286046987.4,Y
1456839515.6,286046992.0,P
1456839535.5,286046989.0,P
1456839555.3,286046988.0,P
1456839575.1,286046984.4,Y
1456839595.9,286046992.9,P
1456839615.7,286046990.5,P
1456839635.5,286046989.5,P
1456839655.4,286046986.9,Y
1456839675.2,286046996.8,P
1456839695.0,286046998.0,N
1456839695.9,286046998.0,N
1456839715.8,286046998.3,N
1456839735.6,286046998.5,N
1456839755.4,286047000.3,N
1456839775.2,286046998.6,N
1456839795.1,286046993.3,N
1456839796.0,286046993.3,N
1456839815.8,286046992.3,N
1456839835.6,286046992.6,N
1456839855.5,286046994.7,N
1456839875.3,286046988.8,Y
1456839895.1,286046999.2,P
1456839915.9,286046997.9,N
1456839935.7,286046995.0,P
1456839955.5,286046998.1,N
1456839975.4,286047002.8,N
1456839995.2,286046998.8,N
1456840015.0,286046995.7,N
1456840015.9,286046995.7,N
1456840035.8,286046994.0,N
1456840055.6,286046994.5,N
1456840075.4,286046995.3,N
1456840095.3,286047000.8,N
1456840115.1,286046998.7,N
1456840116.0,286046998.7,N
1456840135.8,286046998.2,N
1456840155.7,286046999.8,N
1456840175.5,286046999.0,N
1456840195.3,286046997.6,N
1456840215.1,286046996.0,N
1456840235.9,286046996.3,N
1456840255.7,286047001.2,N
1456840275.5,286047000.6,N
1456840295.4,286047001.2,N
1456840315.2,286047001.7,N
1456840335.0,286047001.4,N
1456840335.9,286047001.4,N
1456840355.8,286047004.1,N
1456840375.6,286047006.0,N
1456840395.4,286047005.2,N
1456840415.3,286047003.2,N
1456840435.1,286047004.1,N
1456840436.0,286047004.1,N
1456840455.8,286047003.4,N
1456840475.7,286047005.9,N
1456840495.5,286047006.9,N
1456840515.3,286047008.6,N
1456840535.1,286047009.7,N
1456840555.9,286047012.1,N
1456840575.7,286047010.4,N
1456840595.5,286047006.3,N
1456840615.4,286047006.2,N
1456840635.2,286047010.8,N
1456840655.0,286047012.1,N
1456840655.9,286047012.1,N
1456840675.8,286047013.1,N
1456840695.6,286047014.2,N
1456840715.4,286047015.6,Y
1456840735.3,286047009.6,P
1456840755.1,286047010.8,P
1456840775.8,286047007.7,P
1456840795.7,286047011.7,Y
